Weather History for Angleton, TX

Change the Weather History Date:

Wednesday, November 7, 2012

  Actual Average Record
Temperature  
Mean Temperature 64 °F -  
Max Temperature 81 °F 72 °F 82 °F (2005)
Min Temperature 48 °F 54 °F 42 °F (2002)
Growing Degree Days 14 (Base 50)    
Moisture  
Dew Point 50 °F    
Average Humidity 71    
Maximum Humidity 100    
Minimum Humidity 31    
Precipitation  
Precipitation 0.00 in - - ()
Sea Level Pressure  
Sea Level Pressure 30.12 in    
Wind  
Wind Speed 2 mph (WSW)    
Max Wind Speed 9 mph    
Max Gust Speed -    
Visibility 10 miles    
Events      
Averages and records for this station are not official NWS values.
T = Trace of Precipitation, MM = Missing Value Source: NWS Daily Summary

Daily Weather History Graph

Daily Weather History Graph

Search for Another Location

Airport:

Trip Planner

Search our weather history database for the weather conditions in past years. The results will help you decide how hot, cold, wet, or windy it might be!

Date:

Astronomy

Nov. 07, 2012 Rise Set
Actual Time 6:39 AM CST 5:31 PM CST
Civil Twilight 6:14 AM CST 5:56 PM CST
Nautical Twilight 5:46 AM CST 6:24 PM CST
Astronomical Twilight 5:18 AM CST 6:52 PM CST
Moon 12:05 AM CST (11/7) 1:12 PM CST (11/7)
Length of Visible Light 11h 41m
Length of Day
10h 51m
Last Quarter, 43% of the Moon is Illuminated
Nov 7
Last Quarter
Nov 13
New
Nov 20
First Quarter
Nov 28
Full
Dec 6
Last Quarter

Hourly Weather History & Observations

Time (CST) Temp. Dew Point Humidity Pressure Visibility Wind Dir Wind Speed Gust Speed Precip Events Conditions
12:53 AM 50.0 °F 48.0 °F 93% 30.10 in 10.0 mi Calm Calm - N/A   Clear
1:53 AM 50.0 °F 48.0 °F 93% 30.11 in 10.0 mi Calm Calm - N/A   Clear
2:53 AM 48.0 °F 46.9 °F 96% 30.10 in 10.0 mi Calm Calm - N/A   Clear
3:53 AM 48.0 °F 48.0 °F 100% 30.09 in 10.0 mi Calm Calm - N/A   Clear
4:53 AM 48.0 °F 46.9 °F 96% 30.10 in 10.0 mi Calm Calm - N/A   Clear
5:53 AM 48.9 °F 48.0 °F 97% 30.12 in 10.0 mi North 4.6 mph - N/A   Clear
6:53 AM 48.0 °F 46.9 °F 96% 30.14 in 10.0 mi North 3.5 mph - N/A   Clear
7:53 AM 55.9 °F 51.1 °F 84% 30.17 in 10.0 mi Calm Calm - N/A   Clear
8:53 AM 64.0 °F 51.1 °F 63% 30.19 in 10.0 mi North 3.5 mph - N/A   Clear
9:53 AM 71.1 °F 46.9 °F 42% 30.19 in 10.0 mi Calm Calm - N/A   Unknown
10:53 AM 75.0 °F 46.9 °F 37% 30.17 in 10.0 mi WNW 5.8 mph - N/A   Clear
11:53 AM 77.0 °F 46.9 °F 34% 30.14 in 10.0 mi Variable 4.6 mph - N/A   Clear
12:53 PM 78.1 °F 46.9 °F 33% 30.11 in 10.0 mi Calm Calm - N/A   Clear
1:53 PM 81.0 °F 48.0 °F 31% 30.08 in 10.0 mi Variable 3.5 mph - N/A   Clear
2:53 PM 80.1 °F 48.0 °F 32% 30.07 in 10.0 mi SSW 4.6 mph - N/A   Clear
3:53 PM 77.0 °F 52.0 °F 42% 30.06 in 10.0 mi South 9.2 mph - N/A   Clear
4:53 PM 73.0 °F 54.0 °F 51% 30.07 in 10.0 mi South 9.2 mph - N/A   Clear
5:53 PM 66.9 °F 55.0 °F 66% 30.08 in 10.0 mi South 4.6 mph - N/A   Clear
6:53 PM 64.0 °F 55.0 °F 73% 30.10 in 10.0 mi Calm Calm - N/A   Clear
7:53 PM 59.0 °F 55.0 °F 87% 30.12 in 10.0 mi Calm Calm - N/A   Clear
8:53 PM 57.9 °F 54.0 °F 87% 30.12 in 10.0 mi Calm Calm - N/A   Clear
9:53 PM 55.0 °F 53.1 °F 93% 30.13 in 10.0 mi Calm Calm - N/A   Clear
10:53 PM 54.0 °F 53.1 °F 97% 30.13 in 9.0 mi Calm Calm - N/A   Clear
11:53 PM 54.0 °F 52.0 °F 93% 30.12 in 10.0 mi Calm Calm - N/A   Clear